ATLAS CENTAUR 2 DEB, 698

Orbit data source: Space-Track

ATLAS CENTAUR 2 DEB, 698 is space debris in LEO originally from a launch on Wed, 27 Nov 1963 UTC launched from the Air Force Eastern Test Range (AFETR). Debris objects in space refer to the collection of defunct objects orbiting the Earth. Examples of debris include non-operational satellites, rocket bodies, and fragments generated from explosions, collisions, or faulty payload assembly.

Loading next visibility...
Identifier
698, 1963-047D
Orbit
LEO
Country
Flag of USUS
Related business
Manufacturer
GD/Convair
Mission
Spacecraft
Bus & Motor
CENTAUR PART, Unknown motor
Mass
Unknown
Launch date (UTC)
1963-11-27 (62 years ago)
Launch vehicle
Unknown
Launch site
Air Force Eastern Test Range (AFETR)
Object type
Payload
Rocket body
Debris
Shape & HBR
Unknown shape, 0.5 m
Radar Cross Section
Medium (>0.1 m² and <1 m²)

Expand to show TLE details & history
Last TLE update: 1 day ago

TLE from 1 day ago
0 ATLAS CENTAUR 2 DEB
1 00698U 63047D   26135.24401774  .00000412  00000-0  11998-3 0  9997
2 00698  29.9224 139.2653 0528887 228.1174 127.3110 13.74243625 74525
Epoch: 2026-05-15T05:51Z
TLE epoch observation values (Epoch: 2026-05-15T05:51:23.132Z)
Latitude
-0°
Longitude
178.44079°
Altitude
1,231.241 km
Speed
7.118 km/s
True Right ascension
09h 17m 03s
True Declination
0° 00' 00"
Sunlit
Object was in daylight at epoch
Visualization orbit readout
Latitude
Unknown
Longitude
Unknown
Altitude
Unknown
Speed
Unknown
Apparent Right ascension
Unknown
Apparent Declination
Unknown
Sunlit
N/A
Visualization observer readout
Local Sidereal Time
19:15:59
Azimuth
Unknown
Elevation
Unknown
Doppler factor
Unknown
Orbital elements
Apogee altitude
1,377.739 km
Perigee altitude
598.553 km
Semi-major axis
7,366.283 km
Eccentricity
0.05289
Inclination
29.9224°
RAAN
139.2653°
Arg. of periapsis
228.1174°
True anomaly
131.94033°
Mean anomaly
127.311°
Eccentric anomaly
129.64439°
Mean motion
3.43297 °/min
Orbital period
104.87 mins
BSTAR
0.00011998
Loading maneuver chart data...
Computing Atmospheric mass density...

Documentation

Showing up to 5 results
|